Location: Newark
(50.2306°N, 14.0814°E)
Time: 16:02:03
(UTC+00:00)

Envisat - Visible Passes

Search period start: 07 December 2019 00:00
Search period end: 17 December 2019 00:00
Orbit: 764 x 766 km, 98.1° (Epoch: 07 December)

Date Brightness Start Highest point End Pass type
(mag) Time Alt. Az. Time Alt. Az. Time Alt. Az.
07 Dec 5.6 04:52:27 10° NE 04:56:20 22° E 05:00:13 10° SE visible
07 Dec 3.3 16:11:14 10° SE 16:16:03 45° ENE 16:20:52 10° N visible
07 Dec 4.9 17:50:49 10° SSW 17:55:14 30° W 17:59:41 10° NNW visible
08 Dec 6.4 04:18:06 10° ENE 04:19:02 10° E 04:19:58 10° E visible
08 Dec 3.4 05:53:56 10° NNE 05:59:02 69° ESE 06:04:05 10° S visible
08 Dec 4.0 15:35:32 10° ESE 15:39:34 24° ENE 15:43:37 10° N visible
08 Dec 3.6 17:13:14 10° S 17:18:14 59° W 17:23:17 10° NNW visible
09 Dec 4.8 05:17:25 10° NNE 05:22:05 35° E 05:26:42 10° SSE visible
09 Dec 2.9 16:36:23 10° SSE 16:41:26 71° ENE 16:46:31 10° N visible
09 Dec 5.6 18:17:31 10° SW 18:21:00 18° W 18:24:31 10° NW visible
10 Dec 5.9 04:41:31 10° NE 04:44:56 18° E 04:48:19 10° SE visible
10 Dec 3.5 16:00:12 10° SE 16:04:50 37° ENE 16:09:29 10° N visible
10 Dec 4.5 17:39:13 10° SSW 17:43:52 36° W 17:48:34 10° NNW visible
11 Dec 3.8 05:42:41 10° NNE 05:47:43 56° E 05:52:42 10° S visible
11 Dec 3.2 17:01:51 10° S 17:06:56 72° WSW 17:12:02 10° NNW visible
11 Dec 6.2 18:45:31 10° W 18:46:53 11° W 18:48:15 10° WNW visible
12 Dec 5.2 05:06:19 10° NE 05:10:43 28° E 05:15:04 10° SSE visible
12 Dec 3.0 16:25:13 10° SSE 16:30:11 58° ENE 16:35:12 10° N visible
12 Dec 5.3 18:05:38 10° SW 18:09:36 23° W 18:13:34 10° NW visible
13 Dec 6.0 04:30:45 10° NE 04:33:29 14° E 04:36:13 10° ESE visible
13 Dec 3.1 06:08:07 10° NNE 06:13:15 90° WNW 06:18:21 10° SSW visible
13 Dec 3.7 15:49:13 10° ESE 15:53:38 31° ENE 15:58:04 10° N visible
13 Dec 4.1 17:27:40 10° S 17:32:31 44° W 17:37:23 10° NNW visible
14 Dec 4.2 05:31:29 10° NNE 05:36:23 46° E 05:41:15 10° S visible
14 Dec 3.0 16:50:33 10° SSE 16:55:38 88° WSW 17:00:46 10° NNW visible
14 Dec 6.0 18:32:52 10° WSW 18:35:26 14° W 18:38:00 10° NW visible
15 Dec 5.5 04:55:15 10° NE 04:59:19 23° E 05:03:21 10° SE visible
15 Dec 3.2 16:14:05 10° SE 16:18:57 48° ENE 16:23:50 10° N visible
15 Dec 5.0 17:53:53 10° SSW 17:58:12 27° W 18:02:32 10° NW visible
16 Dec 6.2 04:20:22 10° ENE 04:22:02 11° E 04:23:43 10° ESE visible
16 Dec 3.3 05:56:51 10° NNE 06:01:58 75° ESE 06:07:02 10° S visible
16 Dec 3.9 15:38:19 10° ESE 15:42:27 26° ENE 15:46:36 10° N visible
16 Dec 3.7 17:16:13 10° S 17:21:11 54° W 17:26:11 10° NNW visible
